Regional Weather Roundup
Issued by NWS Upton, NY

Current Version | Previous Version | Text Only | Print | Product List | Glossary On
Versions: 1 2 3 4 5 6 7 8 9 10 11 12 13 14 15 16 17 18 19 20 21 22 23 24 25 26 27 28 29 30 31 32 33 34 35 36 37 38 39 40 41 42 43 44 45 46 47 48 49 50
000 ASUS41 KOKX 300107 RWROKX REGIONAL WEATHER ROUNDUP NATIONAL WEATHER SERVICE NEW YORK NY 900 PM EDT SUN MAR 29 2015 NOTE: "FAIR" INDICATES FEW OR NO CLOUDS BELOW 12,000 FEET WITH NO SIGNIFICANT WEATHER AND/OR OBSTRUCTIONS TO VISIBILITY. NYZ071-072-176-178-NJZ106-104-300200- NEW YORK CITY METRO AREA CITY SKY/WX TMP DP RH WIND PRES REMARKS CENTRAL PARK CLEAR 40 18 41 S3 30.16F LAGUARDIA APRT PTCLDY 38 24 57 S9 30.15F WCI 31 KENNEDY INTL PTCLDY 37 26 64 S16 30.16F WCI 28 NEWARK/LIBERTY PTCLDY 42 6 22 SW8G17 30.15F BRNX BOT. GARD N/A N/A N/A N/A SE12 30.16R TETERBORO CLEAR 41 9 26 SW7 30.13F $$ NYZ177-179-078>081-300200- LONG ISLAND NEW YORK CITY SKY/WX TMP DP RH WIND PRES REMARKS FARMINGDALE CLEAR 35 22 58 SW10 30.16F WCI 27 ISLIP PTCLDY 35 23 61 S8 30.16R WCI 29 SHIRLEY CLEAR 35 22 58 SW7 30.19R WCI 29 WESTHAMPTON CLEAR 28 18 66 CALM 30.19S MONTAUK POINT N/A 36 23 59 SW5 30.17F WCI 32 $$ NYZ052-065-067-300200- HUDSON VALLEY CITY SKY/WX TMP DP RH WIND PRES REMARKS WHITE PLAINS CLEAR 35 11 36 S7 30.11F WCI 29 NEWBURGH NOT AVBL MONTGOMERY CLEAR 30 13 49 CALM 30.08F POUGHKEEPSIE CLEAR 33 14 45 CALM 30.10F ALBANY PTCLDY 32 11 41 S3 30.07F $$ NJZ001-105-106-008-010-013-015-019>022-104-300200- NEW JERSEY CITY SKY/WX TMP DP RH WIND PRES REMARKS NEWARK/LIBERTY PTCLDY 42 6 22 SW8G17 30.15F TETERBORO CLEAR 41 9 26 SW7 30.13F CALDWELL CLEAR 40 6 24 SW3 30.13F MORRISTOWN CLEAR 39 9 28 SW6 30.14F WCI 35 SOMERVILLE CLEAR 32 14 47 S3 30.13R SUSSEX CLEAR 31 15 52 CALM 30.11R ANDOVER N/A 31 16 54 SW3 30.11R TRENTON CLEAR 38 8 29 SW6 30.16R WCI 33 MILLVILLE CLEAR 33 16 49 S3 30.21R ATLANTIC CITY CLEAR 37 11 34 SW7 30.21S WCI 32 WRIGHTSTOWN CLEAR 33 13 43 SW7 30.16S WCI 26 TOMS RIVER CLEAR 32 19 59 S5 30.19S WCI 27 BELMAR CLEAR 36 18 48 S5 30.17F WCI 32 $$ PAZ047>061-062-071-300200- EASTERN PENNSYLVANIA CITY SKY/WX TMP DP RH WIND PRES REMARKS PHILADELPHIA PTCLDY 40 14 34 S8 30.19S WCI 34 ALLENTOWN CLEAR 38 10 31 SW6 30.14R WCI 33 SCRANTON PTCLDY 36 5 27 S5 30.07R WCI 32 $$ CTZ002-004>006-009-010-012-RIZ004-006-007-MAZ004-011-015-300200- SOUTHERN NEW ENGLAND IN CT CITY SKY/WX TMP DP RH WIND PRES REMARKS BRADLEY INTL PTCLDY 37 7 28 CALM 30.12S HARTFORD CLEAR 34 14 43 SE3 30.14S DANBURY CLEAR 28 16 60 SW3 30.12F WTRBRY/OXFORD PTCLDY 34 7 32 S6 30.12F WCI 29 BRIDGEPORT CLEAR 38 21 50 S9 30.14F WCI 31 MERIDEN CLEAR 30 17 58 S5 30.14S WCI 25 NEW HAVEN PTCLDY 36 21 54 S6 30.15S WCI 31 CHESTER FAIR 34 12 40 W6 30.15R WCI 29 GROTON CLEAR 35 21 56 W5 30.16R WCI 31 WILLIMANTIC CLEAR 31 15 52 CALM 30.14R IN RI CITY SKY/WX TMP DP RH WIND PRES REMARKS PROVIDENCE CLEAR 33 17 51 SW7 30.14S WCI 27 BLOCK ISLAND FAIR 36 25 64 SW9 30.16S WCI 29 WESTERLY CLEAR 35 21 56 SW6 30.16S WCI 30 IN MA CITY SKY/WX TMP DP RH WIND PRES REMARKS BOSTON CLEAR 36 15 42 S7 30.12S WCI 30 WORCESTER CLEAR 32 1 26 W6 30.09R WCI 26 WESTFIELD CLEAR 29 14 53 CALM 30.11S PROVINCETOWN CLEAR 34 18 51 S13 30.16S WCI 25 NANTUCKET CLEAR 30 17 58 W6 30.19R WCI 24 $$ ANZ330-335-338-340-345-350-353-355-300200- COASTAL MARINE OBSERVATIONS STATION/POSITION TIME SKY/WX TEMP WIND PRES VSBY WAVE AIR SEA DIR/SP/G HT/PER (UTC) (F) (DEG/KT/KT) (MB) (MI) (FT/S) NY HARB ENTRANCE 0050 37 39 190/ 17/ 19 1021.0 3/ 9 4S FIRE IS 0003 37 N/A 3/10 20S FIRE ISLAND 2350 39 1022.8 3/10 23SW MTP 0050 N/A 4/10 HUDSON CANYON NOT AVBL EXECUTION ROCKS NOT AVBL WESTERN LI SOUND NOT AVBL CENTRAL LI SOUND NOT AVBL EASTERN LI SOUND NOT AVBL ROBBINS REEF 0000 43 230/ 11/ 13 1019.9 $$ >>>>>>>>>>>>>>>>>>>>>>>>>>>> KEY <<<<<<<<<<<<<<<<<<<<<<<<<<< > < > SKY/WX - SKY CONDITION/PRESENT WEATHER < > TMP - TEMPERATURE IN FAHRENHEIT < > DP - DEWPOINT IN FAHRENHEIT < > RH - RELATIVE HUMIDITY IN PERCENT < > WIND - DIRECTION AND SPEED IN MPH < > PRES - MEAN SEA LEVEL PRESSURE IN INCHES OF HG < > WCI - WIND CHILL INDEX < > VSB - VISIBILITY IN MILES < > HX - HEAT INDEX < > TC - TEMPERATURE IN CELSIUS < > VRB - VARIABLE WIND DIRECTION < > < >>>>>>>>>>>>>>>>>>>>>>>>>>>> KEY <<<<<<<<<<<<<<<<<<<<<<<<<<<

USA.gov is the U.S. government's official web portal to all federal, state and local government web resources and services.